| time (UTC) | temp C | wind direction | speed KPH | gust KPH | rain 1hr cm | rain 24hr cm | rain mn cm | humidity % | barometer mb |
| 20260503194529 | 15 | 268 | 12.9 | 17.7 | 0.00 | 0.00 | 0.00 | 74 | 1015.1 |
| 20260503193033 | 15 | 272 | 8.0 | 20.9 | 0.00 | 0.00 | 0.00 | 76 | 1015.2 |
| 20260503191517 | 16 | 273 | 11.3 | 17.7 | 0.00 | 0.00 | 0.00 | 72 | 1015.3 |
| 20260503190023 | 16 | 250 | 3.2 | 19.3 | 0.00 | 0.00 | 0.00 | 75 | 1015.2 |
| 20260503184526 | 16 | 278 | 8.0 | 16.1 | 0.00 | 0.00 | 0.00 | 74 | 1015.5 |
| 20260503183035 | 16 | 270 | 9.7 | 17.7 | 0.00 | 0.00 | 0.00 | 74 | 1015.6 |
| 20260503181554 | 16 | 257 | 8.0 | 14.5 | 0.00 | 0.00 | 0.00 | 76 | 1015.7 |
| 20260503180017 | 15 | 221 | 6.4 | 14.5 | 0.00 | 0.00 | 0.00 | 75 | 1015.8 |
| 20260503174523 | 16 | 229 | 3.2 | 12.9 | 0.00 | 0.00 | 0.00 | 75 | 1015.9 |
| 20260503173041 | 16 | 270 | 6.4 | 12.9 | 0.00 | 0.00 | 0.00 | 75 | 1016.1 |
| 20260503171528 | 16 | 311 | 4.8 | 12.9 | 0.00 | 0.00 | 0.00 | 76 | 1016.1 |
| 20260503081519 | 11 | 290 | 0.0 | 0.0 | 0.00 | 0.00 | 0.00 | 90 | 1015.9 |
| 20260503071503 | 10 | 15 | 0.0 | 0.0 | 0.00 | 0.00 | 0.00 | 88 | 1015.8 |
| 20260503054503 | 10 | 265 | 1.6 | 3.2 | 0.00 | 0.00 | 0.00 | 89 | 1015.5 |
| 20260503053003 | 10 | 265 | 0.0 | 3.2 | 0.00 | 0.00 | 0.00 | 89 | 1015.6 |
| 20260503051506 | 11 | 265 | 0.0 | 3.2 | 0.00 | 0.00 | 0.00 | 88 | 1015.6 |
| 20260503050003 | 11 | 234 | 0.0 | 3.2 | 0.00 | 0.00 | 0.00 | 87 | 1015.6 |
| 20260503044502 | 11 | 234 | 0.0 | 3.2 | 0.00 | 0.00 | 0.00 | 86 | 1015.6 |
| 20260503043004 | 11 | 234 | 0.0 | 3.2 | 0.00 | 0.00 | 0.00 | 86 | 1015.5 |
| 20260503041505 | 12 | 234 | 0.0 | 3.2 | 0.00 | 0.00 | 0.00 | 84 | 1015.4 |
| 20260503040006 | 12 | 234 | 0.0 | 3.2 | 0.00 | 0.00 | 0.00 | 83 | 1015.3 |
| 20260503034503 | 13 | 234 | 0.0 | 3.2 | 0.00 | 0.00 | 0.00 | 81 | 1015.1 |
| 20260503033009 | 13 | 267 | 0.0 | 3.2 | 0.00 | 0.00 | 0.00 | 78 | 1014.9 |
| 20260503031504 | 15 | 267 | 0.0 | 0.0 | 0.00 | 0.00 | 0.00 | 74 | 1014.9 |
| 20260503030006 | 16 | 267 | 0.0 | 0.0 | 0.00 | 0.00 | 0.00 | 71 | 1014.9 |
| 20260503024505 | 16 | 267 | 0.0 | 0.0 | 0.00 | 0.00 | 0.00 | 70 | 1014.7 |
| 20260503023005 | 16 | 268 | 0.0 | 1.6 | 0.00 | 0.00 | 0.00 | 69 | 1014.7 |
| 20260503021515 | 16 | 289 | 0.0 | 3.2 | 0.00 | 0.00 | 0.00 | 68 | 1014.8 |
| 20260503020006 | 16 | 278 | 0.0 | 3.2 | 0.00 | 0.00 | 0.00 | 68 | 1014.9 |
| 20260503014507 | 17 | 266 | 1.6 | 4.8 | 0.00 | 0.00 | 0.00 | 66 | 1015.0 |
| 20260503013007 | 17 | 258 | 3.2 | 4.8 | 0.00 | 0.00 | 0.00 | 66 | 1015.1 |
| 20260503011510 | 17 | 269 | 3.2 | 6.4 | 0.00 | 0.00 | 0.00 | 66 | 1015.3 |
| 20260503010007 | 18 | 263 | 3.2 | 11.3 | 0.00 | 0.00 | 0.00 | 66 | 1015.3 |
| 20260503004507 | 17 | 22 | 1.6 | 6.4 | 0.00 | 0.00 | 0.00 | 67 | 1015.4 |
| 20260503003010 | 17 | 338 | 6.4 | 12.9 | 0.00 | 0.00 | 0.00 | 67 | 1015.4 |
| 20260503001510 | 17 | 219 | 8.0 | 14.5 | 0.00 | 0.00 | 0.00 | 67 | 1015.6 |
| 20260503000016 | 17 | 228 | 3.2 | 9.7 | 0.00 | 0.00 | 0.00 | 69 | 1015.6 |
| 20260502234511 | 16 | 294 | 3.2 | 12.9 | 0.00 | 0.00 | 0.00 | 70 | 1015.8 |
| 20260502233010 | 16 | 270 | 3.2 | 14.5 | 0.00 | 0.00 | 0.00 | 72 | 1016.0 |
| 20260502231510 | 16 | 291 | 4.8 | 17.7 | 0.00 | 0.00 | 0.00 | 73 | 1016.1 |
| 20260502230012 | 16 | 294 | 6.4 | 17.7 | 0.00 | 0.00 | 0.00 | 74 | 1016.2 |
| 20260502224509 | 16 | 260 | 6.4 | 19.3 | 0.00 | 0.00 | 0.00 | 75 | 1016.5 |
| 20260502223032 | 16 | 298 | 8.0 | 19.3 | 0.00 | 0.00 | 0.00 | 75 | 1016.6 |
| 20260502221511 | 16 | 284 | 4.8 | 19.3 | 0.00 | 0.00 | 0.00 | 1016.8 | |
| 20260502220014 | 16 | 253 | 3.2 | 16.1 | 0.00 | 0.00 | 0.00 | 76 | 1017.0 |
| 20260502214503 | 16 | 272 | 8.0 | 19.3 | 0.00 | 0.00 | 0.00 | 75 | 1017.2 |
| 20260502213011 | 16 | 280 | 4.8 | 19.3 | 0.00 | 0.00 | 0.00 | 77 | 1017.4 |
| 20260502211513 | 15 | 49 | 4.8 | 19.3 | 0.00 | 0.00 | 0.00 | 78 | 1017.6 |
| 20260502210013 | 15 | 291 | 9.7 | 22.5 | 0.00 | 0.00 | 0.00 | 79 | 1017.7 |
| 20260502204521 | 15 | 275 | 9.7 | 24.1 | 0.00 | 0.00 | 0.00 | 77 | 1017.8 |
| 20260502203010 | 15 | 360 | 6.4 | 17.7 | 0.00 | 0.00 | 0.00 | 78 | 1017.9 |
| 20260502201514 | 15 | 282 | 6.4 | 19.3 | 0.00 | 0.00 | 0.00 | 78 | 1018.0 |
| 20260502200016 | 15 | 251 | 8.0 | 20.9 | 0.00 | 0.00 | 0.00 | 77 | 1018.1 |